Location: Buch
(50.1863°N, 11.0141°E)
Time: 21:16:14
(UTC+00:00)

Cosmos 1624 Rocket - Pass Details

Date: 18 January 2020
Orbit: 758 x 783 km, 74.0° (Epoch: 16 February)

Event Time Altitude Azimuth Distance (km) Brightness Sun altitude
Exits shadow 06:02:37 - 336° (NNW) 2,997 6.6 -10.1°
Reaches altitude 10° 06:04:22 10° 336° (NNW) 2,314 6.1 -9.9°
Maximum altitude 06:09:37 89° 63° (ENE) 769 4.0 -9.1°
Drops below altitude 10° 06:14:49 10° 158° (SSE) 2,285 7.2 -8.3°
Sets 06:17:10 0° 158° (SSE) 3,205 8.0 -8.0°
